ECHOSTAR 15

Last updated on Sat Jul 05 2025 00:02:44 GMT+0000 (Coordinated Universal Time)

1 36792U 10034A 25185.62220862 -.00000056 00000+0 00000+0 0 9994 2 36792 0.0151 311.0321 0002465 124.9523 326.6781 1.00113857 54839
UTC large
Height (km)
Speed (km/s)
/
Latitude / Longitude
Inclination (degrees)
Orbital Period (minutes)
Azimuth
Elevation
Range (km)
Doppler Factor

Next 0 passes for location: London (51.5072 / 0.1276)

Sorry there are no passes over London.